McComb, MS

10:48 PM CST on November 19, 2017 (GMT -0600)
McComb-Pike County-Lewis

Weather History for KMCB - February, 2014

Change the Weather History Date:

Wednesday, February 5, 2014

  Actual Average Record
Temperature  
Mean Temperature 38 °F -  
Max Temperature 44 °F 57 °F 81 °F (1957)
Min Temperature 30 °F 37 °F 23 °F (1966)
Degree Days  
Heating Degree Days 27    
Moisture  
Dew Point 33 °F    
Average Humidity 80    
Maximum Humidity 97    
Minimum Humidity 61    
Precipitation  
Precipitation 0.00 in - - ()
Sea Level Pressure  
Sea Level Pressure 30.21 in    
Wind  
Wind Speed 12 mph (NNW)    
Max Wind Speed 18 mph    
Max Gust Speed 25 mph    
Visibility 10 miles    
Events      
Averages and records for this station are not official NWS values.
T = Trace of Precipitation, MM = Missing Value Source: NWS Daily Summary

Daily Weather History Graph

Daily Weather History Graph

Search for Another Location

Airport or City:

Trip Planner

Search our weather history database for the weather conditions in past years. The results will help you decide how hot, cold, wet, or windy it might be!

Date:

Astronomy

Feb. 05, 2014 Rise Set
Actual Time 6:51 AM CST 5:40 PM CST
Civil Twilight 6:26 AM CST 6:06 PM CST
Nautical Twilight 5:57 AM CST 6:34 PM CST
Astronomical Twilight 5:28 AM CST 7:03 PM CST
Moon 10:33 AM CST (2/5) No Moon Set
Length of Visible Light 11h 39m
Length of Day
10h 49m
Waxing Crescent, 39% of the Moon is Illuminated
Feb 5
Waxing Crescent
Feb 6
First Quarter
Feb 14
Full
Feb 22
Last Quarter
Mar 1
New

Hourly Weather History & Observations

Time (CST) Temp. Windchill Dew Point Humidity Pressure Visibility Wind Dir Wind Speed Gust Speed Precip Events Conditions
12:32 AM 44.1 °F 36.5 °F 43.0 °F 96% 30.03 in 7.0 mi NW 17.3 mph 25.3 mph N/A   Overcast
12:53 AM 44.1 °F 37.1 °F 42.1 °F 93% 30.04 in 8.0 mi NW 15.0 mph 19.6 mph N/A   Overcast
1:10 AM 43.0 °F 37.2 °F 42.1 °F 97% 30.05 in 10.0 mi NW 10.4 mph - N/A   Overcast
1:53 AM 42.1 °F 35.2 °F 39.9 °F 92% 30.07 in 10.0 mi NW 12.7 mph - N/A   Overcast
2:53 AM 41.0 °F 34.7 °F 39.0 °F 93% 30.08 in 10.0 mi NW 10.4 mph - N/A   Overcast
3:53 AM 39.0 °F 32.3 °F 37.0 °F 93% 30.10 in 10.0 mi NNW 10.4 mph - N/A   Overcast
4:37 AM 37.9 °F 34.4 °F 36.0 °F 93% 30.11 in 10.0 mi NW 4.6 mph - N/A   Scattered Clouds
4:53 AM 37.0 °F 34.5 °F 36.0 °F 96% 30.11 in 10.0 mi NNW 3.5 mph - N/A   Clear
5:08 AM 36.0 °F 32.1 °F 35.1 °F 97% 30.12 in 10.0 mi NW 4.6 mph - N/A   Partly Cloudy
5:34 AM 36.0 °F 31.1 °F 35.1 °F 97% 30.14 in 10.0 mi NW 5.8 mph - N/A   Mostly Cloudy
5:53 AM 37.0 °F 29.8 °F 36.0 °F 96% 30.14 in 10.0 mi NNW 10.4 mph - N/A   Overcast
6:05 AM 37.9 °F 32.1 °F 36.0 °F 93% 30.15 in 10.0 mi NNW 8.1 mph - N/A   Overcast
6:13 AM 37.9 °F 31.5 °F 36.0 °F 93% 30.15 in 10.0 mi NNW 9.2 mph - N/A   Overcast
6:53 AM 37.9 °F 30.9 °F 35.1 °F 89% 30.16 in 10.0 mi NNW 10.4 mph - N/A   Overcast
7:53 AM 39.0 °F 32.8 °F 36.0 °F 89% 30.19 in 10.0 mi NNW 9.2 mph - N/A   Overcast
8:53 AM 39.0 °F 31.8 °F 35.1 °F 86% 30.23 in 10.0 mi NNW 11.5 mph - N/A   Overcast
9:53 AM 41.0 °F 32.8 °F 34.0 °F 76% 30.26 in 10.0 mi North 16.1 mph - N/A   Overcast
10:53 AM 39.9 °F 33.4 °F 35.1 °F 83% 30.27 in 10.0 mi NNW 10.4 mph - N/A   Overcast
11:19 AM 41.0 °F 33.1 °F 34.0 °F 76% 30.28 in 10.0 mi NNW 15.0 mph - N/A   Overcast
11:53 AM 43.0 °F 36.8 °F 34.0 °F 71% 30.27 in 10.0 mi North 11.5 mph 20.7 mph N/A   Overcast
12:53 PM 42.1 °F 34.2 °F 32.0 °F 67% 30.25 in 10.0 mi North 16.1 mph - N/A   Overcast
1:53 PM 43.0 °F 35.7 °F 32.0 °F 65% 30.24 in 10.0 mi North 15.0 mph - N/A   Overcast
2:53 PM 43.0 °F 35.7 °F 30.9 °F 62% 30.25 in 10.0 mi North 15.0 mph - N/A   Overcast
3:14 PM 43.0 °F 37.2 °F 30.9 °F 62% 30.25 in 10.0 mi North 10.4 mph 20.7 mph N/A   Mostly Cloudy
3:31 PM 43.0 °F 36.8 °F 32.0 °F 65% 30.26 in 10.0 mi NW 11.5 mph 24.2 mph N/A   Overcast
3:53 PM 43.0 °F 34.8 °F 32.0 °F 65% 30.27 in 10.0 mi NNW 18.4 mph - N/A   Overcast
4:21 PM 43.0 °F 36.0 °F 30.9 °F 62% 30.27 in 10.0 mi North 13.8 mph - N/A   Mostly Cloudy
4:49 PM 42.8 °F 36.2 °F 30.2 °F 61% 30.28 in 10.0 mi NNW 12.7 mph - N/A   Mostly Cloudy
4:53 PM 42.1 °F 34.2 °F 30.9 °F 65% 30.28 in 10.0 mi NNW 16.1 mph - N/A   Mostly Cloudy
5:53 PM 39.9 °F 33.4 °F 30.0 °F 68% 30.28 in 10.0 mi North 10.4 mph 19.6 mph N/A   Overcast
6:53 PM 37.9 °F 30.0 °F 28.9 °F 70% 30.30 in 10.0 mi NNE 12.7 mph 20.7 mph N/A   Overcast
7:53 PM 37.0 °F 27.0 °F 28.0 °F 70% 30.32 in 10.0 mi North 18.4 mph 25.3 mph N/A   Overcast
8:53 PM 35.1 °F 27.4 °F 27.0 °F 72% 30.33 in 10.0 mi North 10.4 mph 21.9 mph N/A   Overcast
9:53 PM 34.0 °F 25.5 °F 26.1 °F 73% 30.33 in 10.0 mi North 11.5 mph - N/A   Overcast
10:53 PM 32.0 °F 20.8 °F 23.0 °F 69% 30.36 in 10.0 mi North 17.3 mph 23.0 mph N/A   Mostly Cloudy
11:53 PM 30.9 °F 21.2 °F 23.0 °F 72% 30.36 in 10.0 mi North 12.7 mph 18.4 mph N/A   Overcast